St. Cloud, MN

3:10 PM CST on December 11, 2017 (GMT -0600)
Saint Cloud Regional

Weather History for KSTC - August, 2014

Change the Weather History Date:

Thursday, August 28, 2014

  Actual Average Record
Temperature  
Mean Temperature 68 °F 66 °F  
Max Temperature 76 °F 77 °F 94 °F (1984)
Min Temperature 59 °F 54 °F 36 °F (1974)
Degree Days  
Heating Degree Days 0 2  
Month to date heating degree days 2 34  
Since 1 June heating degree days 35 129  
Since 1 July heating degree days 9 51  
Cooling Degree Days 3 3  
Month to date cooling degree days 188 118  
Year to date cooling degree days 540 420  
Since 1 June cooling degree days 496 395  
Growing Degree Days 17 (Base 50)    
Moisture  
Dew Point 61 °F    
Average Humidity 74    
Maximum Humidity 87    
Minimum Humidity 60    
Precipitation  
Precipitation 0.02 in 0.13 in 0.85 in (1940)
Month to date precipitation 2.77 3.38  
Year to date precipitation 26.55 19.17  
Snow  
Snow 0.00 in 0.00 in 0.00 in ()
Month to date snowfall 0.0 0.0  
Since 1 June snowfall 0.0 0.0  
Since 1 July snowfall 0.0 0.0  
Snow Depth 0.00 in    
Sea Level Pressure  
Sea Level Pressure 30.01 in    
Wind  
Wind Speed 8 mph (ESE)    
Max Wind Speed 17 mph    
Max Gust Speed 22 mph    
Visibility 10 miles    
Events Rain    
T = Trace of Precipitation, MM = Missing Value Source: NWS Daily Summary

Daily Weather History Graph

Daily Weather History Graph

Search for Another Location

Airport or City:

Trip Planner

Search our weather history database for the weather conditions in past years. The results will help you decide how hot, cold, wet, or windy it might be!

Date:

Astronomy

Aug. 28, 2014 Rise Set
Actual Time 6:32 AM CDT 8:01 PM CDT
Civil Twilight 6:01 AM CDT 8:32 PM CDT
Nautical Twilight 5:24 AM CDT 9:09 PM CDT
Astronomical Twilight 4:43 AM CDT 9:49 PM CDT
Moon 9:36 AM CDT (8/28) 9:13 PM CDT (8/28)
Length of Visible Light 14h 30m
Length of Day
13h 28m
Waxing Crescent, 9% of the Moon is Illuminated
Aug 28
Waxing Crescent
Sep 2
First Quarter
Sep 8
Full
Sep 15
Last Quarter
Sep 24
New

Hourly Weather History & Observations

Time (CDT) Temp. Dew Point Humidity Pressure Visibility Wind Dir Wind Speed Gust Speed Precip Events Conditions
12:53 AM 61.0 °F 55.9 °F 83% 30.15 in 10.0 mi East 3.5 mph - N/A   Clear
1:53 AM 61.0 °F 55.9 °F 83% 30.14 in 10.0 mi ESE 3.5 mph - N/A   Clear
2:53 AM 61.0 °F 55.0 °F 81% 30.12 in 10.0 mi East 5.8 mph - N/A   Scattered Clouds
3:53 AM 62.1 °F 55.0 °F 78% 30.10 in 10.0 mi ESE 5.8 mph - N/A   Partly Cloudy
4:53 AM 63.0 °F 55.0 °F 75% 30.09 in 10.0 mi ESE 5.8 mph - N/A   Mostly Cloudy
5:53 AM 61.0 °F 55.9 °F 83% 30.09 in 10.0 mi SE 4.6 mph - N/A   Clear
6:53 AM 59.0 °F 55.0 °F 87% 30.10 in 10.0 mi East 4.6 mph - N/A   Clear
7:53 AM 62.1 °F 57.0 °F 84% 30.09 in 10.0 mi East 4.6 mph - N/A   Mostly Cloudy
8:53 AM 64.9 °F 57.9 °F 78% 30.09 in 10.0 mi ESE 4.6 mph - N/A   Clear
9:53 AM 70.0 °F 59.0 °F 68% 30.08 in 10.0 mi SE 10.4 mph - N/A   Clear
10:53 AM 73.0 °F 60.1 °F 64% 30.07 in 10.0 mi SSE 15.0 mph 21.9 mph N/A   Mostly Cloudy
11:25 AM 73.0 °F 60.1 °F 64% 30.05 in 10.0 mi SE 10.4 mph - N/A   Mostly Cloudy
11:53 AM 73.9 °F 60.1 °F 62% 30.06 in 10.0 mi SSE 12.7 mph - N/A   Mostly Cloudy
12:04 PM 73.9 °F 60.1 °F 62% 30.04 in 10.0 mi SE 11.5 mph - N/A   Mostly Cloudy
12:53 PM 75.0 °F 60.1 °F 60% 30.04 in 10.0 mi SE 13.8 mph - N/A   Mostly Cloudy
1:53 PM 75.9 °F 61.0 °F 60% 30.01 in 10.0 mi SSE 12.7 mph - N/A   Mostly Cloudy
2:53 PM 73.9 °F 61.0 °F 64% 30.00 in 10.0 mi ESE 8.1 mph - N/A   Scattered Clouds
3:48 PM 73.4 °F 60.8 °F 65% 29.97 in 10.0 mi SE 9.2 mph - N/A   Overcast
3:53 PM 73.0 °F 61.0 °F 66% 29.99 in 10.0 mi SE 11.5 mph - N/A   Overcast
4:26 PM 71.6 °F 62.6 °F 73% 29.96 in 7.0 mi SE 8.1 mph - N/A Rain Light Rain
4:53 PM 70.0 °F 63.0 °F 78% 29.97 in 10.0 mi SE 6.9 mph - 0.01 in Rain Light Rain
5:27 PM 70.0 °F 64.0 °F 81% 29.96 in 10.0 mi SE 6.9 mph - 0.00 in Rain Light Rain
5:53 PM 69.1 °F 64.0 °F 84% 29.97 in 10.0 mi ESE 5.8 mph - 0.01 in Rain Light Rain
6:53 PM 68.0 °F 64.0 °F 87% 29.96 in 10.0 mi East 5.8 mph - 0.00 in Rain Light Rain
7:19 PM 68.0 °F 64.0 °F 87% 29.94 in 10.0 mi East 6.9 mph - 0.00 in   Overcast
7:53 PM 68.0 °F 64.0 °F 87% 29.96 in 10.0 mi East 5.8 mph - 0.00 in   Overcast
8:27 PM 68.0 °F 64.0 °F 87% 29.93 in 10.0 mi East 6.9 mph - N/A   Overcast
8:38 PM 68.0 °F 64.0 °F 87% 29.93 in 10.0 mi East 5.8 mph - N/A   Overcast
8:49 PM 68.0 °F 64.4 °F 88% 29.92 in 9.0 mi East 8.1 mph - N/A   Overcast
8:53 PM 68.0 °F 64.0 °F 87% 29.94 in 9.0 mi East 6.9 mph - N/A   Overcast
9:53 PM 68.0 °F 64.0 °F 87% 29.93 in 8.0 mi East 6.9 mph - N/A   Overcast
10:15 PM 68.0 °F 64.0 °F 87% 29.92 in 9.0 mi ESE 6.9 mph - N/A   Overcast
10:53 PM 68.0 °F 64.0 °F 87% 29.93 in 4.0 mi ESE 6.9 mph - N/A   Overcast
11:53 PM 68.0 °F 64.0 °F 87% 29.90 in 10.0 mi East 5.8 mph - N/A   Overcast